Location: Bu�n Treun
(12.1333°N, 108.3167°E)
Time: 08:43:36
(UTC+00:00)

BEESAT - Pass Details

Date: 02 October 2021
Orbit: 699 x 709 km, 98.6° (Epoch: 18 October)

Event Time Altitude Azimuth Distance (km) Brightness Sun altitude
Rises 12:11:26 0° 9° (N) 3,072 ? -24.1°
Reaches altitude 10° 12:13:41 10° 7° (N) 2,155 ? -24.7°
Maximum altitude 12:18:23 72° 283° (WNW) 733 ? -25.8°
Drops below altitude 10° 12:23:05 10° 199° (SSW) 2,158 ? -27.0°
Sets 12:25:20 0° 197° (SSW) 3,077 ? -27.5°
